Overview Statistics Trail Chart Weather Telemetry Raw packets
 

This is the latest recevied weather packets stored in our database for station/object K7SKM. If no packets are shown the sender has not sent any weather packets the latest 10 day(s).

<< 33 34 35 36 37 38 39 >>
Time Temp. Humidity Pressure Rain* Wind** Luminosity Snow
1788449913 11.67° C 96% 1014 hPa 0 mm - 67 W/m² -
1788449609 11.67° C 96% 1014 hPa 0 mm - 60 W/m² -
1788449306 11.67° C 96% 1014 hPa 0 mm - 68 W/m² -
1788449001 11.67° C 96% 1014 hPa 0 mm - 85 W/m² -
1788448696 11.67° C 96% 1014 hPa 0 mm - 92 W/m² -
1788448391 11.67° C 96% 1014 hPa 0 mm - 77 W/m² -
1788448086 11.67° C 97% 1014 hPa 0 mm - 62 W/m² -
1788447781 11.67° C 97% 1013.8 hPa 0 mm - 48 W/m² -
1788447475 11.67° C 97% 1013.7 hPa 0 mm - 39 W/m² -
1788447171 11.67° C 97% 1013.8 hPa 0 mm - 35 W/m² -
1788446869 11.67° C 97% 1013.8 hPa 0 mm - 35 W/m² -
1788446565 11.67° C 96% 1013.7 hPa 0 mm - 35 W/m² -
1788446261 11.11° C 96% 1013.7 hPa 0 mm - 30 W/m² -
1788445957 11.11° C 96% 1013.6 hPa 0 mm - 18 W/m² -
1788445653 11.11° C 96% 1013.7 hPa 0 mm - 9 W/m² -
1788445349 11.11° C 95% 1013.6 hPa 1.78 mm - 8 W/m² -
1788445044 11.11° C 95% 1013.6 hPa 1.78 mm - 7 W/m² -
1788444739 11.11° C 95% 1013.6 hPa 0 mm - 5 W/m² -
1788444435 11.11° C 95% 1013.6 hPa 0 mm - 5 W/m² -
1788444135 11.11° C 95% 1013.7 hPa 0 mm - 4 W/m² -
1788443831 11.11° C 94% 1013.8 hPa 1.78 mm - 2 W/m² -
1788443526 11.11° C 94% 1013.5 hPa 1.78 mm - 2 W/m² -
1788443224 11.11° C 93% 1013.7 hPa 0 mm - 2 W/m² -
1788442921 11.11° C 93% 1013.4 hPa 0 mm - 2 W/m² -
1788442618 11.11° C 92% 1013.5 hPa 1.78 mm - 0 W/m² -

* Rain latest hour (hover to see other rain measurements)
** Current wind speed in m/s (hover to see current wind gust speed)